When you browse on this site, cookies collect data to enhance your experience and personalize the content and advertising you see.
Visit our Privacy Policy to learn more. By continuing to use the site, you agree to this use of cookies and data.

Hourly Weather Szolnok

Today, 26 September, Saturday

Time Temperature Precipitation Wind Pressure Humidity
00:00 +18°C° 0.5 mm 4 mps 738 mmHg 86%
01:00 +18°C° 0 mm 3 mps 737 mmHg 88%
02:00 +18°C° 0.3 mm 4 mps 737 mmHg 85%
03:00 +18°C° 0.3 mm 4 mps 736 mmHg 83%
04:00 +18°C° 0.3 mm 4 mps 736 mmHg 81%
05:00 +17°C° 2.7 mm 4 mps 736 mmHg 84%
06:00 +16°C° 2.7 mm 5 mps 736 mmHg 86%
07:00 +15°C° 2.7 mm 5 mps 737 mmHg 89%
08:00 +15°C° 0.2 mm 5 mps 737 mmHg 83%
09:00 +15°C° 0.2 mm 5 mps 738 mmHg 77%
10:00 +15°C° 0.2 mm 6 mps 739 mmHg 71%
11:00 +16°C° 0 mm 5 mps 739 mmHg 66%
12:00 +18°C° 0 mm 4 mps 739 mmHg 60%
13:00 +18°C° 0 mm 3 mps 740 mmHg 54%
14:00 +18°C° 0 mm 3 mps 740 mmHg 55%
15:00 +18°C° 0 mm 4 mps 740 mmHg 55%
16:00 +18°C° 0 mm 4 mps 740 mmHg 55%
17:00 +15°C° 0 mm 4 mps 740 mmHg 59%
18:00 +14°C° 0 mm 4 mps 740 mmHg 64%
19:00 +13°C° 0 mm 4 mps 741 mmHg 68%
20:00 +12°C° 0 mm 5 mps 741 mmHg 68%
21:00 +12°C° 0 mm 5 mps 741 mmHg 68%
22:00 +10°C° 0 mm 5 mps 742 mmHg 68%
23:00 +10°C° 0 mm 5 mps 742 mmHg 68%

Tomorrow, 27 September, Sunday

Time Temperature Precipitation Wind Pressure Humidity
00:00 +10°C° 0 mm 5 mps 742 mmHg 68%
01:00 +10°C° 0 mm 5 mps 743 mmHg 68%
02:00 +9°C° 0 mm 5 mps 743 mmHg 69%
03:00 +9°C° 0 mm 5 mps 743 mmHg 69%
04:00 +8°C° 0 mm 5 mps 744 mmHg 69%
05:00 +9°C° 0 mm 5 mps 744 mmHg 68%
06:00 +9°C° 0 mm 6 mps 745 mmHg 67%
07:00 +9°C° 0 mm 6 mps 745 mmHg 65%
08:00 +10°C° 0 mm 6 mps 746 mmHg 60%
09:00 +13°C° 0 mm 6 mps 747 mmHg 56%
10:00 +14°C° 0 mm 6 mps 747 mmHg 51%
11:00 +15°C° 0 mm 6 mps 748 mmHg 48%
12:00 +16°C° 0 mm 6 mps 748 mmHg 45%
13:00 +17°C° 0 mm 5 mps 749 mmHg 42%
14:00 +18°C° 0 mm 4 mps 749 mmHg 41%
15:00 +18°C° 0 mm 3 mps 749 mmHg 41%
16:00 +19°C° 0 mm 1 mps 749 mmHg 40%
17:00 +17°C° 0 mm 2 mps 750 mmHg 44%
18:00 +16°C° 0 mm 2 mps 750 mmHg 48%
19:00 +14°C° 0 mm 2 mps 751 mmHg 52%
20:00 +13°C° 0 mm 3 mps 751 mmHg 54%
21:00 +13°C° 0 mm 3 mps 750 mmHg 56%
22:00 +13°C° 0 mm 3 mps 750 mmHg 58%
23:00 +13°C° 0 mm 4 mps 750 mmHg 59%

Day after tomorrow, 28 September, Monday

Time Temperature Precipitation Wind Pressure Humidity
00:00 +13°C° 0 mm 5 mps 749 mmHg 60%
01:00 +13°C° 0 mm 5 mps 749 mmHg 61%
02:00 +13°C° 0 mm 5 mps 749 mmHg 62%
03:00 +13°C° 0 mm 5 mps 748 mmHg 62%
04:00 +13°C° 0 mm 5 mps 748 mmHg 62%
05:00 +13°C° 0.3 mm 5 mps 748 mmHg 65%
06:00 +13°C° 0.3 mm 5 mps 748 mmHg 68%
07:00 +13°C° 0.3 mm 5 mps 748 mmHg 72%
08:00 +16°C° 0 mm 5 mps 748 mmHg 64%
09:00 +19°C° 0 mm 6 mps 748 mmHg 57%
10:00 +21°C° 0 mm 6 mps 748 mmHg 50%
11:00 +22°C° 0 mm 6 mps 748 mmHg 45%
12:00 +23°C° 0 mm 6 mps 748 mmHg 41%
13:00 +24°C° 0 mm 6 mps 748 mmHg 37%
14:00 +23°C° 0.1 mm 6 mps 748 mmHg 42%
15:00 +22°C° 0.1 mm 6 mps 748 mmHg 47%
16:00 +21°C° 0.1 mm 6 mps 748 mmHg 52%
17:00 +19°C° 0.2 mm 5 mps 749 mmHg 59%
18:00 +18°C° 0.2 mm 3 mps 749 mmHg 67%
19:00 +16°C° 0.2 mm 2 mps 749 mmHg 74%
20:00 +16°C° 0.1 mm 2 mps 750 mmHg 76%
21:00 +16°C° 0.1 mm 2 mps 750 mmHg 78%
22:00 +15°C° 0.1 mm 2 mps 750 mmHg 80%
23:00 +15°C° 0 mm 2 mps 750 mmHg 82%

29 September, Tuesday

Time Temperature Precipitation Wind Pressure Humidity
00:00 +15°C° 0 mm 2 mps 750 mmHg 85%
01:00 +14°C° 0 mm 1 mps 750 mmHg 87%
02:00 +14°C° 0 mm 2 mps 750 mmHg 86%
03:00 +14°C° 0 mm 2 mps 750 mmHg 86%
04:00 +14°C° 0 mm 2 mps 750 mmHg 85%
05:00 +14°C° 0.1 mm 2 mps 750 mmHg 85%
06:00 +14°C° 0.1 mm 2 mps 751 mmHg 85%
07:00 +14°C° 0.1 mm 2 mps 751 mmHg 84%
08:00 +14°C° 0.1 mm 2 mps 751 mmHg 83%
09:00 +14°C° 0.1 mm 2 mps 751 mmHg 82%
10:00 +14°C° 0.1 mm 3 mps 751 mmHg 81%
11:00 +14°C° 0.1 mm 3 mps 751 mmHg 78%
12:00 +16°C° 0.1 mm 3 mps 751 mmHg 74%
13:00 +16°C° 0.1 mm 3 mps 751 mmHg 71%
14:00 +17°C° 0 mm 3 mps 751 mmHg 69%
15:00 +17°C° 0 mm 4 mps 751 mmHg 67%
16:00 +17°C° 0 mm 4 mps 751 mmHg 65%
17:00 +15°C° 0 mm 4 mps 751 mmHg 69%
18:00 +14°C° 0 mm 3 mps 752 mmHg 73%
19:00 +13°C° 0 mm 3 mps 752 mmHg 77%
20:00 +13°C° 0 mm 3 mps 752 mmHg 77%
21:00 +12°C° 0 mm 3 mps 752 mmHg 77%
22:00 +12°C° 0 mm 3 mps 752 mmHg 77%
23:00 +12°C° 0 mm 3 mps 752 mmHg 79%

30 September, Wednesday

Time Temperature Precipitation Wind Pressure Humidity
00:00 +12°C° 0 mm 3 mps 752 mmHg 81%
01:00 +11°C° 0 mm 3 mps 752 mmHg 83%
02:00 +11°C° 0 mm 3 mps 752 mmHg 84%
03:00 +11°C° 0 mm 3 mps 752 mmHg 85%
04:00 +10°C° 0 mm 3 mps 752 mmHg 87%
05:00 +11°C° 0 mm 3 mps 752 mmHg 85%
06:00 +11°C° 0 mm 3 mps 752 mmHg 83%
07:00 +11°C° 0 mm 3 mps 752 mmHg 82%
08:00 +13°C° 0 mm 3 mps 752 mmHg 74%
09:00 +15°C° 0 mm 4 mps 751 mmHg 66%
10:00 +18°C° 0 mm 4 mps 751 mmHg 58%
11:00 +19°C° 0 mm 4 mps 751 mmHg 54%
12:00 +20°C° 0 mm 4 mps 750 mmHg 50%
13:00 +21°C° 0 mm 5 mps 750 mmHg 46%
14:00 +21°C° 0 mm 5 mps 750 mmHg 47%
15:00 +21°C° 0 mm 4 mps 749 mmHg 47%
16:00 +21°C° 0 mm 4 mps 749 mmHg 47%
17:00 +19°C° 0 mm 4 mps 749 mmHg 54%
18:00 +18°C° 0 mm 4 mps 749 mmHg 60%
19:00 +15°C° 0 mm 4 mps 749 mmHg 66%
20:00 +15°C° 0 mm 4 mps 749 mmHg 69%
21:00 +14°C° 0 mm 4 mps 749 mmHg 71%
22:00 +14°C° 0 mm 4 mps 749 mmHg 74%
23:00 +13°C° 0 mm 4 mps 748 mmHg 74%

1 October, Thursday

Time Temperature Precipitation Wind Pressure Humidity
00:00 +13°C° 0 mm 4 mps 748 mmHg 75%
01:00 +13°C° 0 mm 4 mps 748 mmHg 76%
02:00 +13°C° 0 mm 4 mps 747 mmHg 75%
03:00 +13°C° 0 mm 4 mps 747 mmHg 75%
04:00 +13°C° 0 mm 4 mps 747 mmHg 75%
05:00 +14°C° 0 mm 4 mps 747 mmHg 74%
06:00 +14°C° 0 mm 5 mps 747 mmHg 73%
07:00 +14°C° 0 mm 5 mps 747 mmHg 71%
08:00 +16°C° 0 mm 5 mps 747 mmHg 65%
09:00 +17°C° 0 mm 6 mps 747 mmHg 59%
10:00 +20°C° 0 mm 6 mps 747 mmHg 54%
11:00 +20°C° 0 mm 6 mps 746 mmHg 53%
12:00 +20°C° 0 mm 6 mps 746 mmHg 52%
13:00 +20°C° 0 mm 6 mps 746 mmHg 51%
14:00 +20°C° 0 mm 5 mps 746 mmHg 52%
15:00 +20°C° 0 mm 5 mps 746 mmHg 54%
16:00 +19°C° 0 mm 4 mps 746 mmHg 55%
17:00 +18°C° 0 mm 4 mps 746 mmHg 59%
18:00 +17°C° 0 mm 3 mps 746 mmHg 63%
19:00 +16°C° 0 mm 2 mps 746 mmHg 67%
20:00 +16°C° 0 mm 2 mps 746 mmHg 68%
21:00 +16°C° 0 mm 2 mps 746 mmHg 70%
22:00 +16°C° 0 mm 2 mps 746 mmHg 71%
23:00 +15°C° 0 mm 2 mps 746 mmHg 72%
Show more